Weather History for Lemoore (Abandoned) Willett A, CO

Change the Weather History Date:

Sunday, February 16, 2014

  Actual Average (KBJC) Record (KBJC)
Temperature  
Mean Temperature 48 °F -  
Max Temperature 67 °F 45 °F 66 °F (2011)
Min Temperature 28 °F 25 °F -8 °F (1993)
Degree Days  
Heating Degree Days 18    
Moisture  
Dew Point 28 °F    
Average Humidity 62    
Maximum Humidity 95    
Minimum Humidity 18    
Precipitation  
Precipitation 0.00 in - - ()
Sea Level Pressure  
Sea Level Pressure 29.84 in    
Wind  
Wind Speed 6 mph (West)    
Max Wind Speed 24 mph    
Max Gust Speed 39 mph    
Visibility 9 miles    
Events      
Averages and records for this station are not official NWS values.
T = Trace of Precipitation, MM = Missing Value Source: NWS Daily Summary

Daily Weather History Graph

Daily Weather History Graph

Search for Another Location

Airport:

Trip Planner

Search our weather history database for the weather conditions in past years. The results will help you decide how hot, cold, wet, or windy it might be!

Date:

Astronomy

Feb. 16, 2014 Rise Set
Actual Time 6:52 AM MST 5:37 PM MST
Civil Twilight 6:24 AM MST 6:05 PM MST
Nautical Twilight 5:52 AM MST 6:37 PM MST
Astronomical Twilight 5:21 AM MST 7:08 PM MST
Moon 7:37 PM MST (2/16) 7:23 AM MST (2/16)
Length of Visible Light 11h 40m
Length of Day
10h 45m
Full, 97% of the Moon is Illuminated
Feb 16
Full
Feb 22
Last Quarter
Mar 1
New
Mar 8
First Quarter
Mar 16
Full

Hourly Weather History & Observations

Time (MST) Temp. Windchill Dew Point Humidity Pressure Visibility Wind Dir Wind Speed Gust Speed Precip Events Conditions
12:12 AM 30.6 °F 27.1 °F 27.7 °F 89% 30.00 in 10.0 mi ENE 3.5 mph - N/A   Clear
12:32 AM 30.7 °F - 28.6 °F 92% 29.99 in 10.0 mi Calm Calm - N/A   Clear
12:52 AM 30.7 °F - 28.4 °F 91% 29.98 in 10.0 mi Calm Calm - N/A   Clear
1:12 AM 30.2 °F 26.7 °F 28.0 °F 92% 29.97 in 10.0 mi SSE 3.5 mph - N/A   Clear
1:32 AM 30.2 °F - 28.2 °F 92% 29.97 in 10.0 mi Calm Calm - N/A   Clear
1:52 AM 29.3 °F 23.2 °F 27.5 °F 93% 29.96 in 10.0 mi North 5.8 mph - N/A   Clear
2:12 AM 29.7 °F - 27.9 °F 93% 29.95 in 10.0 mi Calm Calm - N/A   Clear
2:32 AM 29.8 °F - 28.2 °F 94% 29.94 in 10.0 mi Calm Calm - N/A   Clear
2:52 AM 29.8 °F 24.9 °F 28.2 °F 94% 29.93 in 10.0 mi NW 4.6 mph - N/A   Clear
3:12 AM 30.0 °F 25.2 °F 28.0 °F 92% 29.91 in 10.0 mi East 4.6 mph - N/A   Clear
3:32 AM 30.2 °F - 28.4 °F 93% 29.91 in 10.0 mi Calm Calm - N/A   Clear
3:52 AM 30.0 °F - 28.2 °F 93% 29.89 in 7.0 mi Calm Calm - N/A   Clear
4:12 AM 29.8 °F - 28.2 °F 94% 29.88 in 7.0 mi Calm Calm - N/A   Clear
4:32 AM 29.7 °F 24.7 °F 28.0 °F 94% 29.88 in 7.0 mi SW 4.6 mph - N/A   Clear
4:52 AM 29.1 °F - 27.5 °F 94% 29.87 in 7.0 mi Calm Calm - N/A   Clear
5:12 AM 28.4 °F 24.6 °F 26.8 °F 94% 29.85 in 7.0 mi East 3.5 mph - N/A   Clear
5:32 AM 28.9 °F 25.2 °F 27.3 °F 94% 29.86 in 7.0 mi West 3.5 mph - N/A   Clear
5:52 AM 29.5 °F 25.9 °F 28.2 °F 95% 29.85 in 7.0 mi South 3.5 mph - N/A   Clear
6:12 AM 29.7 °F - 28.2 °F 94% 29.85 in 7.0 mi Calm Calm - N/A   Clear
6:32 AM 29.8 °F - 28.2 °F 94% 29.84 in 7.0 mi Calm Calm - N/A   Clear
6:52 AM 29.3 °F - 27.9 °F 94% 29.83 in 7.0 mi Calm Calm - N/A   Clear
7:12 AM 28.8 °F - 27.0 °F 93% 29.83 in 7.0 mi Calm Calm - N/A   Clear
7:32 AM 29.1 °F - 27.5 °F 94% 29.82 in 7.0 mi Calm Calm - N/A   Clear
7:52 AM 32.0 °F - 30.6 °F 94% 29.83 in 7.0 mi Calm Calm - N/A   Clear
8:12 AM 34.0 °F 31.0 °F 31.6 °F 91% 29.82 in 7.0 mi NNE 3.5 mph - N/A   Clear
8:32 AM 34.7 °F 30.6 °F 31.3 °F 87% 29.82 in 7.0 mi East 4.6 mph - N/A   Clear
8:52 AM 34.7 °F - 32.0 °F 90% 29.82 in 7.0 mi Calm Calm - N/A   Clear
9:12 AM 37.4 °F - 32.9 °F 84% 29.81 in 10.0 mi Calm Calm - N/A   Clear
9:32 AM 37.8 °F 33.3 °F 32.7 °F 82% 29.80 in 7.0 mi NE 5.8 mph - N/A   Clear
9:52 AM 40.6 °F - 33.4 °F 75% 29.79 in 10.0 mi Calm Calm - N/A   Clear
10:12 AM 45.0 °F 40.6 °F 34.5 °F 67% 29.78 in 10.0 mi ENE 8.1 mph - N/A   Clear
10:32 AM 46.9 °F - 34.9 °F 63% 29.78 in 10.0 mi ENE 4.6 mph - N/A   Clear
10:52 AM 49.1 °F - 33.4 °F 55% 29.78 in 10.0 mi East 5.8 mph - N/A   Clear
11:12 AM 51.1 °F - 34.7 °F 54% 29.76 in 10.0 mi ESE 5.8 mph - N/A   Clear
11:32 AM 53.2 °F - 34.2 °F 48% 29.75 in 10.0 mi SSE 4.6 mph - N/A   Clear
11:52 AM 55.2 °F - 32.4 °F 42% 29.74 in 10.0 mi ESE 6.9 mph - N/A   Clear
12:12 PM 54.5 °F - 34.2 °F 46% 29.72 in 10.0 mi East 4.6 mph - N/A   Clear
12:32 PM 54.0 °F - 35.1 °F 49% 29.73 in 10.0 mi NNE 4.6 mph - N/A   Clear
12:52 PM 63.9 °F - 28.9 °F 27% 29.70 in 10.0 mi WSW 12.7 mph 21.9 mph N/A   Clear
1:12 PM 67.5 °F - 22.3 °F 18% 29.70 in 10.0 mi WSW 12.7 mph 21.9 mph N/A   Clear
1:32 PM 66.2 °F - 23.2 °F 20% 29.70 in 10.0 mi West 19.6 mph 28.8 mph N/A   Clear
1:52 PM 66.9 °F - 24.4 °F 20% 29.71 in 10.0 mi WSW 8.1 mph 21.9 mph N/A   Clear
2:12 PM 66.4 °F - 25.2 °F 21% 29.69 in 10.0 mi WSW 15.0 mph 26.5 mph N/A   Clear
2:32 PM 64.6 °F - 24.4 °F 22% 29.67 in 10.0 mi WSW 23.0 mph 35.7 mph N/A   Clear
2:52 PM 64.8 °F - 23.7 °F 21% 29.68 in 10.0 mi West 19.6 mph 38.0 mph N/A   Clear
3:12 PM 65.1 °F - 23.2 °F 20% 29.68 in 10.0 mi WSW 21.9 mph 38.0 mph N/A   Clear
3:32 PM 64.4 °F - 24.1 °F 22% 29.68 in 10.0 mi WSW 18.4 mph 33.4 mph N/A   Clear
3:52 PM 64.4 °F - 23.4 °F 21% 29.69 in 10.0 mi West 19.6 mph 28.8 mph N/A   Clear
4:12 PM 59.5 °F - 25.3 °F 27% 29.70 in 10.0 mi West 20.7 mph 25.3 mph N/A   Clear
4:32 PM 58.1 °F - 25.2 °F 28% 29.72 in 10.0 mi West 16.1 mph 26.5 mph N/A   Clear
4:52 PM 55.6 °F - 28.9 °F 36% 29.74 in 10.0 mi West 20.7 mph 25.3 mph N/A   Clear
5:12 PM 54.3 °F - 30.0 °F 39% 29.73 in 10.0 mi West 18.4 mph 26.5 mph N/A   Clear
5:32 PM 51.1 °F - 32.0 °F 48% 29.72 in 10.0 mi WNW 12.7 mph 19.6 mph N/A   Clear
5:52 PM 50.5 °F - 32.5 °F 50% 29.74 in 10.0 mi WNW 17.3 mph 21.9 mph N/A   Clear
6:12 PM 52.7 °F - 32.5 °F 46% 29.79 in 10.0 mi WSW 18.4 mph 33.4 mph N/A   Mostly Cloudy
6:32 PM 51.3 °F - 34.9 °F 54% 29.82 in 10.0 mi WNW 12.7 mph 24.2 mph N/A   Light Drizzle
6:52 PM 48.0 °F - 36.5 °F 64% 29.83 in 10.0 mi WSW 8.1 mph - N/A   Mostly Cloudy
7:12 PM 47.5 °F - 37.0 °F 67% 29.86 in 10.0 mi West 9.2 mph - N/A   Mostly Cloudy
7:32 PM 45.9 °F 42.9 °F 36.7 °F 70% 29.85 in 10.0 mi NE 5.8 mph - N/A   Mostly Cloudy
7:52 PM 44.4 °F - 36.7 °F 74% 29.85 in 10.0 mi Calm Calm - N/A   Clear
8:12 PM 43.7 °F 38.1 °F 36.7 °F 76% 29.86 in 10.0 mi NE 10.4 mph - N/A   Scattered Clouds
8:32 PM 46.4 °F - 34.7 °F 64% 29.88 in 10.0 mi Calm Calm - N/A   Mostly Cloudy
8:52 PM 43.7 °F 37.3 °F 34.9 °F 71% 29.92 in 10.0 mi North 12.7 mph 17.3 mph N/A   Mostly Cloudy
9:12 PM 43.2 °F 34.2 °F 32.4 °F 66% 29.95 in 10.0 mi NW 21.9 mph 29.9 mph N/A   Overcast
9:32 PM 45.3 °F 36.9 °F 22.3 °F 40% 29.97 in 10.0 mi WNW 23.0 mph 39.1 mph N/A   Overcast
9:52 PM 44.6 °F 35.7 °F 16.9 °F 33% 29.95 in 10.0 mi WSW 24.2 mph 36.8 mph N/A   Scattered Clouds
10:12 PM 43.9 °F 36.8 °F 16.2 °F 33% 30.00 in 10.0 mi West 15.0 mph 24.2 mph N/A   Clear
10:32 PM 43.7 °F 35.2 °F 8.2 °F 23% 30.00 in 10.0 mi West 20.7 mph 31.1 mph N/A   Clear
10:52 PM 44.2 °F 35.4 °F 5.4 °F 20% 30.03 in 10.0 mi West 23.0 mph 32.2 mph N/A   Clear
11:12 PM 43.7 °F 37.3 °F 5.5 °F 21% 30.06 in 10.0 mi WNW 12.7 mph 28.8 mph N/A   Clear
11:32 PM 43.0 °F 34.5 °F 6.3 °F 22% 30.06 in 10.0 mi West 19.6 mph 34.5 mph N/A   Clear
11:52 PM 42.6 °F 35.2 °F 6.6 °F 23% 30.05 in 10.0 mi West 15.0 mph 33.4 mph N/A   Clear